BEIDOU-3S M1S (C57)

Last updated on Wed Aug 26 2026 00:04:16 GMT+0000 (Coordinated Universal Time)

1 40749U 15037B 26237.25196376 -.00000029 00000+0 00000+0 0 9999 2 40749 54.8026 299.6509 0001769 44.7965 315.2980 1.86254920 75411
UTC large
Height (km)
Speed (km/s)
/
Latitude / Longitude
Inclination (degrees)
Orbital Period (minutes)
Azimuth
Elevation
Range (km)
Doppler Factor

Next 0 passes for location: London (51.5072 / 0.1276)

No passes found over London.
BEIDOU-3S M1S (C57)